[[[{"header":{"parameterUnit":"kt","parameterCategory":2,"dx":1,"dy":1,"la1":30.253999710083008,"la2":30.299108505249023,"lo1":-89.0895004272461,"lo2":-89.04439544677734,"nx":28,"ny":28,"refTime":"2022-09-26T21:00:00:Z","depth":0,"parameterNumber":1,"parameterNumberName":"U-component_of_WINDS"},"data":[-0.0551,-0.0625,-0.063,-0.0716,-0.0734,-0.0794,-0.0817,-0.0847,-0.0871,-0.0943,-0.0985,-0.0997,-0.1024,-0.1075,-0.112,-0.1125,-0.1144,-0.1165,-0.1167,-0.1066,-0.1052,-0.1039,-0.1022,-0.1169,-0.117,-0.1272,-0.1273,-0.1274,-0.0471,-0.049,-0.0538,-0.0587,-0.0627,-0.0608,-0.0646,-0.0681,-0.0735,-0.0767,-0.0809,-0.0873,-0.0924,-0.0944,-0.0994,-0.1028,-0.1023,-0.1042,-0.104,-0.1044,-0.0936,-0.0918,-0.1045,-0.1045,-0.1045,-0.1045,-0.1045,-0.1045,-0.0327,-0.0372,-0.0405,-0.0457,-0.0483,-0.0516,-0.0559,-0.0574,-0.0621,-0.0674,-0.0671,-0.0733,-0.0766,-0.083,-0.0853,-0.0901,-0.0882,-0.0905,-0.0911,-0.0916,-0.0921,-0.0771,-0.091,-0.091,-0.091,-0.0909,-0.0909,0,-0.0224,-0.0225,-0.0272,-0.0319,-0.0358,-0.0396,-0.0432,-0.0459,-0.0464,-0.0503,-0.0559,-0.0593,-0.0659,-0.0713,-0.0762,-0.0782,-0.0769,-0.0768,-0.0783,-0.0786,-0.0781,-0.0784,-0.0607,-0.0765,-0.0764,-0.0763,-0.0762,-0.0762,-0.008,-0.0132,-0.017,-0.0202,-0.0223,-0.0275,-0.0307,-0.0308,-0.0342,-0.0387,-0.0427,-0.0481,-0.0525,-0.0615,-0.0634,-0.0684,-0.0679,-0.0738,-0.0686,-0.0685,-0.068,-0.0677,-0.0682,-0.0749,-0.075,-0.0752,-0.0753,0,0.0003,-0.0007,-0.009,-0.0123,-0.0133,-0.0187,-0.0216,-0.0261,-0.0271,-0.0335,-0.035,-0.0367,-0.0423,-0.0433,-0.05,-0.0503,-0.0592,-0.0585,-0.0579,-0.0579,-0.0633,-0.0628,-0.0807,-0.0831,-0.0678,-0.0679,-0.068,0,0.0122,0.0052,0.0043,-0.0005,-0.0081,-0.0081,-0.0157,-0.0174,-0.0204,-0.0254,-0.024,-0.0288,-0.0293,-0.0341,-0.0347,-0.0421,-0.0434,-0.0441,-0.0442,-0.0443,-0.0442,-0.0464,-0.0457,-0.0442,-0.0441,-0.044,-0.0439,0,0.025,0.0163,0.0085,0.0064,0.002,-0.0017,-0.0037,-0.0071,-0.0104,-0.0147,-0.0168,-0.0219,-0.0248,-0.0287,-0.0293,-0.0258,-0.0385,-0.0338,-0.0392,-0.0392,-0.0422,-0.0421,-0.0575,-0.0438,-0.0438,-0.0438,-0.0437,0,0.0343,0.0299,0.0188,0.0152,0.0129,0.0077,0.0027,-0.002,-0.0057,-0.0064,-0.0099,-0.0092,-0.0158,-0.011,-0.0202,-0.0154,-0.0182,-0.0195,-0.0199,-0.0208,-0.0155,-0.0242,-0.0387,-0.0403,-0.0212,-0.021,-0.0208,0,0.0493,0.0377,0.0375,0.0269,0.0214,0.0233,0.0176,0.0141,0.0127,0.0079,0.0063,0.0007,0.004,0.0021,-0.0023,-0.0042,-0.0104,-0.0033,-0.0105,-0.0107,-0.0096,-0.0229,-0.0249,-0.0353,-0.0184,-0.0187,-0.0189,0,0.0607,0.0553,0.0534,0.0509,0.0462,0.0415,0.035,0.0293,0.0261,0.022,0.0164,0.0084,0.0107,0.0074,0.0073,0.0027,-0.0062,0.0056,0.0055,0.0035,-0.0173,-0.0191,-0.0209,-0.0052,-0.0055,-0.0057,-0.017,0,0.0751,0.069,0.0638,0.0581,0.0543,0.0475,0.0463,0.0425,0.0429,0.0415,0.0332,0.0298,0.0239,0.0216,0.0218,0.0117,0.0132,0.0155,0.0198,0.0111,0.0074,0.0059,0.0256,0.0257,0.0258,0.0259,0,0,0.0896,0.0808,0.0806,0.0741,0.0709,0.0728,0.0656,0.0627,0.0565,0.0543,0.0568,0.0449,0.0419,0.032,0.0292,0.0267,0.0248,0.0278,0.0153,0.0141,0.013,0.0091,0.0075,0.026,0.0261,0.0261,0.0262,0,0.0945,0.0916,0.0845,0.0815,0.0769,0.0757,0.074,0.0698,0.0685,0.0603,0.0618,0.0567,0.047,0.0437,0.0408,0.0291,0.0303,0.0274,0.0215,0.0164,0.0151,0.0139,0.0098,0.0083,0.0264,0.0264,0.0264,0,0.1055,0.1024,0.0988,0.0914,0.0884,0.0825,0.087,0.0805,0.0762,0.0782,0.07,0.0678,0.0633,0.054,0.0497,0.0518,0.0354,0.0403,0.0396,0.039,0.0339,0.0324,0.031,0.0493,0.0494,0.0495,0,0,0.1098,0.1042,0.1006,0.0924,0.0904,0.0884,0.0851,0.085,0.0809,0.0792,0.0764,0.0723,0.0667,0.063,0.0576,0.0476,0.0466,0.0432,0.0421,0.0412,0.0401,0.0348,0.0333,0.0498,0.0498,0.0498,0,0,0.1119,0.1075,0.1085,0.0988,0.0949,0.0907,0.0857,0.0868,0.0818,0.0824,0.0818,0.0806,0.0719,0.0697,0.0742,0.0591,0.0635,0.0624,0.0609,0.0595,0.0584,0.059,0.0779,0,0,0,0,0,0.1162,0.1081,0.1091,0.1072,0.0977,0.0902,0.089,0.0883,0.0915,0.0876,0.0855,0.087,0.072,0.076,0.0742,0.069,0.054,0.0533,0.0526,0.0483,0.0468,0.0456,0,0,0,0,0,0,0.1154,0.1132,0.1093,0.1048,0.1027,0.0905,0.0957,0.0953,0.0919,0.0924,0.0874,0.0869,0.0861,0.0769,0.0753,0.0704,0.0785,0.0537,0.0531,0.0525,0.0478,0.0466,0.0456,0,0,0,0,0,0.1148,0.113,0.098,0.1049,0.103,0.1003,0.096,0.0957,0.0931,0.0896,0.0892,0.0929,0.086,0.0845,0.0759,0.0712,0.0797,0.079,0.0533,0.0528,0.0524,0.0472,0,0,0,0,0,0,0.1144,0.1127,0.0976,0.097,0.1078,0.1009,0.0998,0.0961,0.0906,0.09,0.0951,0.0955,0.0858,0.0847,0.0835,0.0715,0.0806,0.08,0.0796,0.0529,0.0525,0.0522,0,0,0,0,0,0,0.1137,0.1122,0.0973,0.101,0.1009,0.1015,0.1006,0.0931,0.0905,0.0964,0.0965,0.0954,0.0874,0.0848,0.0839,0.0723,0.0813,0.0807,0.0803,0.08,0.0526,0.0523,0,0,0,0,0,0,0.113,0.1117,0.1012,0.1011,0.1009,0.0943,0.095,0.0852,0.0938,0.0966,0.0946,0.0949,0.0874,0.0866,0.0841,0.0729,0.0724,0.0813,0.0809,0.0806,0.0804,0,0,0,0,0,0,0,0.1125,0.1212,0.1011,0.1011,0.101,0.0915,0.0914,0.0912,0.0939,0.0942,0.0945,0.0948,0.0848,0.0841,0.0834,0.0733,0,0,0.0814,0.0811,0,0,0,0,0,0,0,0,0.1217,0.1213,0.1011,0.101,0.1009,0.0915,0.0914,0.0913,0.0939,0.0942,0.0944,0.0946,0.0846,0.084,0.0835,0,0,0,0,0,0,0,0,0,0,0,0,0,0,0,0.1011,0.101,0,0.0915,0.0914,0.0913,0.094,0.0942,0.0944,0.0946,0.0844,0.084,0.0835,0,0,0,0,0,0,0,0,0,0,0,0,0,0,0,0,0,0,0,0,0,0,0,0,0,0,0,0,0,0,0,0,0,0,0,0,0,0,0,0,0,0,0,0,0,0,0,0,0,0,0,0,0,0,0,0,0,0,0,0,0,0,0,0,0,0,0,0,0]}],[{"header":{"parameterUnit":"kt","parameterCategory":2,"dx":1,"dy":1,"la1":30.253999710083008,"la2":30.299108505249023,"lo1":-89.0895004272461,"lo2":-89.04439544677734,"nx":28,"ny":28,"refTime":"2022-09-26T21:00:00:Z","depth":0,"parameterNumber":2,"parameterNumberName":"V-component_of_WINDS"},"data":[-5.4897,-5.4942,-5.4957,-5.5015,-5.5038,-5.508,-5.51,-5.5126,-5.5151,-5.5202,-5.5234,-5.5251,-5.528,-5.532,-5.5355,-5.5361,-5.5376,-5.5383,-5.539,-5.5347,-5.5342,-5.5337,-5.5328,-5.5385,-5.5385,-5.5433,-5.5434,-5.5434,-5.4869,-5.4893,-5.4927,-5.497,-5.5,-5.5003,-5.5037,-5.5061,-5.5098,-5.5128,-5.5159,-5.5204,-5.5241,-5.5267,-5.5304,-5.5325,-5.5328,-5.5335,-5.5334,-5.5339,-5.5293,-5.5284,-5.5332,-5.5332,-5.5332,-5.5332,-5.5332,-5.5332,-5.4823,-5.4849,-5.4883,-5.4921,-5.4946,-5.4974,-5.5001,-5.5022,-5.5055,-5.5096,-5.5104,-5.5145,-5.5176,-5.5226,-5.5245,-5.5278,-5.5272,-5.5283,-5.5286,-5.5289,-5.5292,-5.5226,-5.5284,-5.5284,-5.5284,-5.5283,-5.5283,0,-5.4794,-5.4804,-5.4837,-5.4875,-5.4903,-5.4932,-5.4962,-5.4978,-5.5002,-5.5027,-5.5065,-5.5089,-5.5136,-5.5173,-5.5209,-5.5226,-5.523,-5.5231,-5.5239,-5.5237,-5.5232,-5.5238,-5.5165,-5.5229,-5.5229,-5.5228,-5.5228,-5.5228,-5.475,-5.4777,-5.4819,-5.484,-5.4859,-5.4892,-5.4915,-5.4933,-5.4956,-5.4994,-5.5015,-5.5051,-5.5082,-5.5138,-5.516,-5.5194,-5.5196,-5.522,-5.5201,-5.5199,-5.52,-5.5199,-5.5203,-5.5223,-5.5224,-5.5224,-5.5225,0,-5.4725,-5.4747,-5.4792,-5.4829,-5.484,-5.4867,-5.4898,-5.4923,-5.494,-5.4977,-5.4986,-5.5012,-5.5047,-5.5065,-5.5108,-5.5116,-5.5163,-5.5163,-5.5154,-5.5155,-5.518,-5.5179,-5.5253,-5.5264,-5.5203,-5.5204,-5.5204,0,-5.4697,-5.4731,-5.4761,-5.4786,-5.4825,-5.4843,-5.488,-5.4898,-5.4924,-5.4953,-5.496,-5.4987,-5.5005,-5.5035,-5.5046,-5.5087,-5.5094,-5.5103,-5.5106,-5.5104,-5.5103,-5.5116,-5.5115,-5.5109,-5.5108,-5.5108,-5.5108,0,-5.4656,-5.471,-5.4751,-5.4767,-5.4808,-5.4827,-5.4845,-5.4873,-5.4894,-5.4923,-5.4937,-5.4969,-5.4987,-5.5012,-5.5027,-5.5014,-5.5076,-5.5061,-5.5086,-5.5086,-5.5099,-5.5098,-5.5159,-5.5107,-5.5107,-5.5107,-5.5107,0,-5.4637,-5.4667,-5.4722,-5.4758,-5.4771,-5.4796,-5.4831,-5.4857,-5.4886,-5.4895,-5.4918,-5.4924,-5.4959,-5.4944,-5.4993,-5.4972,-5.4989,-5.5001,-5.5003,-5.5008,-5.4991,-5.5025,-5.5079,-5.5086,-5.5012,-5.5011,-5.5011,0,-5.4586,-5.4646,-5.4661,-5.4712,-5.4743,-5.475,-5.4779,-5.4804,-5.4819,-5.4846,-5.4862,-5.4892,-5.4884,-5.4896,-5.4918,-5.4935,-5.4962,-5.4932,-5.4972,-5.4973,-5.4967,-5.5016,-5.5021,-5.5065,-5.5001,-5.5002,-5.5003,0,-5.4549,-5.4598,-5.4606,-5.4625,-5.4661,-5.4685,-5.4717,-5.4751,-5.4769,-5.4794,-5.4823,-5.4863,-5.486,-5.4879,-5.4886,-5.4908,-5.4944,-5.4901,-5.4901,-5.491,-5.4996,-5.5001,-5.5008,-5.4945,-5.4946,-5.4947,-5.4995,0,-5.452,-5.4551,-5.4572,-5.4611,-5.4632,-5.4663,-5.4682,-5.4702,-5.4709,-5.4723,-5.4763,-5.4785,-5.4818,-5.4829,-5.4834,-5.4877,-5.4873,-5.4867,-5.4854,-5.4885,-5.4902,-5.4908,-5.4829,-5.4828,-5.4828,-5.4828,0,0,-5.4467,-5.4512,-5.4526,-5.4557,-5.4577,-5.4582,-5.4615,-5.4633,-5.4669,-5.4683,-5.4675,-5.4736,-5.4754,-5.48,-5.4811,-5.4823,-5.4833,-5.482,-5.487,-5.4874,-5.4879,-5.4896,-5.4902,-5.4827,-5.4827,-5.4827,-5.4827,0,-5.446,-5.448,-5.4511,-5.4531,-5.4562,-5.4575,-5.4583,-5.4613,-5.4624,-5.4662,-5.4665,-5.469,-5.4736,-5.4756,-5.4772,-5.4815,-5.4816,-5.4823,-5.4842,-5.4867,-5.4871,-5.4876,-5.4894,-5.49,-5.4827,-5.4827,-5.4827,0,-5.4429,-5.4452,-5.4468,-5.451,-5.4529,-5.4559,-5.455,-5.458,-5.4602,-5.4604,-5.4642,-5.4656,-5.4682,-5.4722,-5.474,-5.4734,-5.48,-5.478,-5.4782,-5.4785,-5.481,-5.4816,-5.4821,-5.4752,-5.4752,-5.4752,0,0,-5.442,-5.4448,-5.4478,-5.451,-5.4522,-5.4542,-5.4559,-5.4566,-5.4591,-5.46,-5.4618,-5.4641,-5.4669,-5.4686,-5.4712,-5.4753,-5.476,-5.4771,-5.4774,-5.4777,-5.4781,-5.4807,-5.4812,-5.4751,-5.475,-5.475,0,0,-5.4416,-5.4452,-5.4454,-5.4494,-5.4517,-5.4547,-5.4566,-5.4569,-5.4594,-5.4593,-5.4605,-5.4612,-5.4649,-5.4662,-5.4644,-5.4708,-5.4694,-5.4699,-5.4698,-5.4703,-5.4706,-5.4703,-5.4637,0,0,0,0,0,-5.4418,-5.4447,-5.4449,-5.4458,-5.4509,-5.4546,-5.4553,-5.4565,-5.4556,-5.4572,-5.4587,-5.4586,-5.4655,-5.464,-5.4648,-5.4668,-5.4735,-5.4738,-5.474,-5.4749,-5.4754,-5.4758,0,0,0,0,0,0,-5.4422,-5.4434,-5.4448,-5.4479,-5.4491,-5.4546,-5.4534,-5.4538,-5.4555,-5.4555,-5.4583,-5.4587,-5.4597,-5.4636,-5.4644,-5.4662,-5.4635,-5.4736,-5.4738,-5.4741,-5.4751,-5.4755,-5.4758,0,0,0,0,0,-5.4425,-5.4435,-5.4513,-5.4479,-5.4489,-5.4512,-5.4533,-5.4536,-5.4549,-5.4573,-5.4577,-5.4557,-5.4597,-5.4604,-5.4641,-5.4659,-5.4629,-5.4632,-5.4738,-5.4739,-5.4741,-5.4753,0,0,0,0,0,0,-5.4428,-5.4438,-5.4516,-5.4519,-5.4468,-5.4509,-5.4516,-5.4534,-5.4567,-5.4571,-5.4547,-5.4547,-5.4598,-5.4603,-5.4608,-5.4657,-5.4625,-5.4628,-5.463,-5.4739,-5.474,-5.4742,0,0,0,0,0,0,-5.4433,-5.444,-5.4517,-5.4504,-5.4506,-5.4506,-5.4512,-5.4544,-5.4567,-5.4539,-5.454,-5.4547,-5.4589,-5.4602,-5.4606,-5.4656,-5.4622,-5.4625,-5.4627,-5.4628,-5.474,-5.4741,0,0,0,0,0,0,-5.4436,-5.4443,-5.4503,-5.4505,-5.4506,-5.4546,-5.4535,-5.4586,-5.4557,-5.4538,-5.4555,-5.4554,-5.4588,-5.4593,-5.4605,-5.4653,-5.4655,-5.4622,-5.4624,-5.4625,-5.4626,0,0,0,0,0,0,0,-5.4439,-5.4391,-5.4495,-5.4505,-5.4507,-5.4552,-5.4552,-5.4553,-5.4557,-5.4556,-5.4555,-5.4554,-5.4607,-5.461,-5.4613,-5.465,0,0,-5.4622,-5.4623,0,0,0,0,0,0,0,0,-5.4389,-5.4391,-5.4495,-5.4496,-5.4497,-5.4552,-5.4552,-5.4553,-5.4557,-5.4556,-5.4555,-5.4555,-5.4608,-5.461,-5.4612,0,0,0,0,0,0,0,0,0,0,0,0,0,0,0,-5.4495,-5.4496,0,-5.4552,-5.4552,-5.4553,-5.4557,-5.4556,-5.4555,-5.4555,-5.4608,-5.461,-5.4612,0,0,0,0,0,0,0,0,0,0,0,0,0,0,0,0,0,0,0,0,0,0,0,0,0,0,0,0,0,0,0,0,0,0,0,0,0,0,0,0,0,0,0,0,0,0,0,0,0,0,0,0,0,0,0,0,0,0,0,0,0,0,0,0,0,0,0,0,0]}]]]